Theta_e
313 314 314 314 314 314 314 314 314 314 314 315 315 315 316 315 316 315 315 315 316 315 315 315 318 319 319 320 321 322 324 325 324 326 331 335 341 343 344 344 342 341 341 340
313 313 313 312 313 313 314 314 314 314 314 314 314 315 315 315 315 315 315 315 316 316 315 317 319 318 318 319 320 321 322 324 325 324 324 327 332 337 341 343 345 346 343 342
312 313 312 312 313 314 314 314 314 315 314 314 314 314 315 314 314 315 315 316 316 315 316 318 318 318 318 319 319 319 321 322 323 326 325 326 330 335 338 342 344 347 346 344
312 311 311 311 312 312 314 313 313 313 313 314 313 313 313 313 313 314 316 316 316 316 318 317 318 318 318 318 318 320 322 323 322 324 325 326 328 329 330 337 340 344 347 346
312 311 311 312 312 312 313 313 313 313 313 313 313 313 314 314 314 315 315 315 316 317 317 317 318 317 317 318 319 320 322 323 324 324 325 326 325 324 327 330 337 343 346 348
312 311 311 312 313 313 313 313 313 313 313 313 313 313 314 314 314 314 314 315 315 316 317 317 317 317 317 317 318 320 321 323 324 324 325 325 327 327 328 329 334 338 344 347
313 312 312 313 313 313 313 313 314 314 315 314 315 314 313 314 313 313 313 313 313 316 316 317 317 317 317 318 318 318 319 320 321 323 324 325 326 327 328 330 330 335 339 344
314 314 312 313 313 313 313 313 314 313 311 312 313 313 314 313 312 312 313 314 316 316 316 317 317 316 317 317 318 318 319 319 320 321 323 326 328 327 327 327 331 335 339 342
314 314 312 313 312 312 313 314 313 313 312 312 313 312 313 313 313 313 313 315 315 315 316 315 315 316 316 317 317 317 318 319 320 320 321 324 328 330 329 330 332 334 338 338
314 316 313 313 312 312 313 313 313 313 313 313 312 313 313 314 313 313 314 314 315 315 315 315 316 316 316 316 316 316 316 317 318 319 320 322 325 330 332 332 332 335 337 340
315 316 315 314 314 314 314 313 313 315 318 318 314 313 315 314 314 314 314 315 315 315 316 316 316 315 315 315 316 317 317 317 318 318 319 321 324 328 330 333 335 334 338 340
314 315 316 313 313 313 313 314 314 317 316 316 315 315 314 314 314 314 315 316 316 316 316 316 315 314 314 314 315 315 315 315 315 316 318 319 323 326 328 332 336 336 337 340
314 314 317 315 315 314 314 314 314 315 316 317 318 315 315 315 316 315 316 316 316 316 316 316 315 315 314 314 314 314 314 314 314 315 317 318 322 325 327 331 336 337 337 339
314 315 315 315 313 314 315 313 313 314 317 316 315 315 315 315 315 315 316 316 316 316 316 315 315 315 314 313 314 314 313 313 315 316 317 318 322 324 326 330 337 338 337 338
313 317 315 313 313 313 314 313 313 314 314 315 315 315 315 315 315 316 316 316 316 316 316 316 315 316 316 315 314 314 313 312 313 315 316 319 321 323 326 329 338 338 337 340
312 315 313 313 311 311 312 313 313 312 313 314 314 314 314 314 315 315 316 316 316 316 315 315 316 316 316 316 315 314 313 312 313 314 316 318 320 322 325 329 340 337 338 343
312 313 314 314 311 311 314 312 312 313 313 313 314 314 316 315 315 316 316 316 316 316 316 316 316 316 316 315 314 314 313 312 313 314 316 318 319 320 324 333 340 337 342 347
311 312 314 315 312 317 312 311 313 315 316 315 314 315 315 315 315 315 315 315 316 317 316 316 316 316 314 313 313 313 312 312 313 314 316 317 316 321 324 338 337 340 346 349
311 313 314 315 314 312 312 313 315 317 317 314 315 314 315 315 314 315 315 314 314 315 315 314 313 312 312 312 312 312 312 313 312 313 313 315 318 321 328 339 338 343 348 349
312 313 315 315 318 318 317 314 314 315 318 316 315 315 315 314 316 315 315 314 315 313 312 312 311 310 310 311 311 311 313 312 313 313 313 314 317 324 336 339 344 346 347 348
316 313 315 315 319 317 315 314 313 318 318 316 315 314 314 315 315 315 315 315 312 311 310 309 309 309 310 310 311 313 313 314 313 313 313 315 318 334 338 340 341 342 343 344
315 316 318 318 320 319 314 314 316 315 314 314 315 314 314 314 315 315 313 312 311 310 310 308 308 308 309 310 311 312 314 314 315 316 318 323 336 339 340 340 341 341 341 341
314 313 315 314 316 314 313 313 313 313 312 311 312 312 314 314 314 314 312 311 310 309 308 307 307 308 310 311 311 313 315 316 316 319 326 329 335 338 339 338 339 339 339 339
311 311 313 313 312 312 312 312 313 313 313 313 312 314 314 314 313 311 310 310 310 308 308 306 307 309 311 311 312 314 315 316 319 321 329 331 333 335 336 336 337 338 339 337
312 311 309 310 311 310 311 311 312 312 312 311 310 310 310 310 310 310 310 309 308 308 306 306 307 309 311 309 313 315 316 317 320 321 327 332 332 333 333 333 337 337 336 334
307 309 308 309 306 305 307 310 311 309 308 308 309 310 310 309 308 307 307 307 306 306 305 304 306 307 309 311 313 317 317 319 320 322 329 328 328 330 331 332 324 331 333 333
Wind_Speed
6 9 11 8 7 9 8 8 9 4 1 10 14 14 12 14 15 14 13 13 10 9 3 1 5 7 10 10 11 11 11 12 11 6 5 4 16 16 20 20 24 25 26 26
8 12 1 4 6 9 9 9 9 6 7 8 14 17 16 16 17 19 19 18 14 9 6 2 4 7 10 11 11 12 11 11 12 10 11 9 17 18 20 18 21 22 24 25
12 2 4 7 7 10 10 10 5 10 6 14 17 21 23 16 10 11 13 14 9 8 3 2 5 10 11 12 12 13 13 11 10 9 8 11 15 20 22 20 19 20 22 26
7 1 10 8 9 8 12 8 6 8 10 9 3 8 5 9 10 9 9 8 10 7 4 2 4 5 5 8 11 13 13 14 11 11 10 11 15 19 19 17 18 17 19 23
4 7 11 9 11 8 11 3 8 10 13 15 16 8 10 5 8 9 7 6 7 4 3 1 3 6 8 10 10 12 16 18 14 13 13 13 15 18 19 19 20 19 19 21
12 3 7 9 3 7 1 9 12 13 12 12 19 10 9 10 9 8 5 6 3 1 3 3 5 7 8 9 12 13 13 15 18 18 16 15 17 19 20 22 21 21 20 20
14 13 6 8 11 9 10 10 10 9 9 8 6 6 12 7 3 5 4 3 3 4 4 5 7 8 9 11 13 14 17 20 20 20 20 19 20 20 21 24 24 22 21 22
11 10 14 11 13 10 6 7 9 8 8 6 11 6 3 5 2 3 5 5 3 5 5 10 12 12 13 13 15 16 18 19 19 21 23 22 22 22 23 24 25 25 23 22
13 14 5 6 5 9 6 10 6 11 15 12 11 6 8 9 8 6 3 5 8 7 8 11 11 14 17 17 17 18 19 20 20 22 22 24 24 23 25 27 28 27 24 25
8 13 11 5 7 9 12 5 6 9 10 15 9 9 4 11 3 4 5 5 8 11 14 15 13 15 15 17 20 21 21 23 23 24 24 24 25 25 25 27 29 29 27 25
9 9 14 7 13 16 8 12 10 7 6 7 8 2 9 2 2 4 7 11 13 14 14 13 13 17 18 18 17 17 22 25 25 25 26 26 26 25 26 28 29 30 29 28
6 6 12 16 10 5 13 16 14 11 12 9 11 13 4 3 2 6 14 17 15 13 14 13 13 15 17 18 18 17 18 21 28 29 28 28 27 26 27 29 30 31 30 28
4 8 10 14 8 8 11 15 15 15 16 16 13 6 8 7 12 15 15 16 15 14 14 14 14 13 16 16 18 22 23 24 28 29 28 29 29 28 30 29 31 30 29 29
4 15 18 15 15 5 7 8 11 15 13 16 20 22 19 19 20 17 15 16 17 15 16 15 14 14 18 20 20 21 26 27 26 29 28 30 31 30 31 30 31 30 31 31
13 18 18 19 18 18 18 20 21 21 22 22 24 26 23 22 20 17 14 16 17 17 18 17 15 15 17 22 23 24 27 28 27 30 31 30 30 32 32 31 32 31 32 32
14 16 18 21 20 21 20 22 25 26 26 27 28 30 24 25 20 12 15 16 19 20 19 18 20 21 19 23 25 27 29 31 32 30 31 31 30 31 32 32 31 31 33 32
12 10 11 16 17 12 13 22 23 23 25 24 24 23 16 10 12 14 15 18 22 22 21 20 20 19 20 26 28 29 31 36 31 31 31 31 31 33 31 32 30 32 32 31
17 12 6 7 9 10 14 4 8 12 13 12 18 17 15 13 11 16 19 21 19 18 19 21 20 21 29 32 32 30 32 37 32 31 30 32 34 31 31 32 31 31 31 32
17 14 5 6 9 16 16 11 9 8 13 11 11 11 9 14 20 21 17 13 15 21 20 20 28 32 34 33 31 30 33 28 31 32 32 35 34 34 30 31 30 30 30 30
8 12 8 6 5 4 3 2 4 6 13 7 5 13 18 21 16 16 20 19 21 22 25 24 31 35 35 33 31 30 25 27 26 33 33 40 41 33 29 27 28 30 30 29
3 2 11 13 6 6 5 4 4 6 4 16 19 22 22 19 18 20 22 23 22 23 26 30 31 27 29 27 26 24 27 23 28 36 43 47 45 33 26 23 24 26 28 29
3 3 3 5 5 4 7 10 8 14 19 21 24 23 22 21 23 22 21 23 23 23 24 27 26 27 28 26 25 25 21 29 27 33 41 44 20 23 29 28 27 28 30 29
2 5 4 3 5 16 11 14 16 16 17 17 18 20 22 24 24 24 22 24 23 20 18 26 28 25 27 23 25 24 24 27 31 30 25 21 17 18 25 27 26 26 28 28
5 8 4 9 0 16 16 18 16 18 19 19 20 24 25 25 25 25 23 22 20 16 16 26 26 21 23 25 24 25 24 25 25 24 17 11 15 20 23 25 27 26 26 26
5 8 11 13 15 17 9 17 20 22 20 20 22 24 25 26 25 25 23 23 17 16 25 24 23 22 23 27 26 23 19 19 20 18 15 7 15 20 22 22 25 27 26 31
2 4 3 6 20 14 16 20 25 19 24 23 23 24 25 25 22 23 19 16 15 19 23 23 25 26 26 25 27 20 16 15 13 15 7 14 15 18 23 25 25 28 30 26
Wind_Direction
201 245 226 239 241 303 285 267 261 232 228 269 253 255 246 246 249 239 236 246 244 223 212 325 57 23 4 18 13 2 354 348 350 336 271 249 274 255 246 237 233 227 224 221
220 238 217 259 245 234 238 243 239 267 268 283 274 269 268 259 252 250 244 236 227 203 209 161 24 14 15 10 2 348 351 351 338 335 333 295 279 270 255 241 235 229 223 219
261 38 135 228 195 220 225 255 258 274 310 274 269 280 254 240 240 242 241 239 208 210 183 10 20 26 353 354 357 335 338 339 330 310 291 274 268 258 255 249 240 233 225 219
260 102 216 225 246 243 251 204 265 272 275 278 148 289 235 222 244 203 188 184 197 164 144 102 5 357 351 341 328 328 345 331 316 311 286 272 267 268 265 264 252 241 229 223
108 190 203 246 259 213 279 194 261 280 271 280 264 246 248 181 188 167 166 164 161 149 128 357 350 329 330 334 334 335 332 328 320 310 293 291 282 278 279 274 264 254 240 228
265 231 262 278 209 230 108 240 241 244 257 248 243 220 215 188 201 152 135 136 136 271 264 307 319 314 316 322 328 325 324 324 328 317 297 288 287 283 275 272 267 254 244 235
231 229 219 233 217 199 229 247 270 237 204 243 114 229 262 146 168 206 279 250 255 272 282 309 317 317 309 309 316 319 325 326 324 316 301 294 286 282 278 271 266 260 249 239
275 247 199 186 233 288 236 294 276 274 272 278 157 245 133 145 155 315 289 274 247 239 330 320 317 311 301 303 306 308 308 308 308 308 302 295 289 285 278 271 263 257 250 240
264 243 146 237 230 248 206 240 330 288 268 262 247 204 214 216 224 186 208 222 251 263 293 302 303 301 306 303 300 301 300 298 301 299 297 290 288 279 275 273 270 261 252 247
282 270 236 178 248 222 258 314 226 209 266 253 236 227 212 182 137 155 224 276 294 293 285 289 296 292 288 289 293 296 300 298 295 294 290 288 282 281 273 271 267 260 255 239
281 250 272 198 234 256 204 227 232 288 288 272 270 262 106 195 256 278 292 305 297 288 291 293 292 292 293 291 287 288 292 297 294 291 288 285 280 279 277 271 267 260 249 236
248 285 274 270 302 289 281 277 239 233 232 229 273 279 124 220 273 305 292 304 304 294 292 288 289 294 297 301 297 296 297 295 292 289 284 283 281 276 277 269 264 258 247 234
220 240 265 242 212 214 242 242 248 259 267 266 260 228 162 218 255 316 305 311 301 292 286 286 289 289 289 293 296 300 300 299 296 286 280 283 280 275 275 269 264 256 243 231
289 267 264 269 295 184 251 237 234 241 245 253 249 268 270 276 287 297 300 308 305 291 285 281 280 283 292 294 292 297 302 303 299 288 284 279 277 275 272 270 263 250 235 226
241 258 262 262 271 279 281 271 259 248 245 250 267 269 275 279 284 292 300 295 306 294 282 278 285 293 294 294 291 293 299 300 296 285 284 274 276 278 274 269 258 240 229 220
246 256 268 269 269 268 261 263 260 259 259 260 264 270 274 277 279 279 270 293 305 303 292 282 285 286 292 295 293 294 296 298 293 283 282 276 278 281 272 267 248 229 220 210
255 258 262 257 260 284 270 255 255 256 253 252 256 267 298 281 261 282 297 297 301 296 295 295 297 298 294 294 291 288 291 295 289 283 282 277 277 282 268 266 231 217 210 198
249 250 272 278 293 251 256 270 279 282 284 268 253 269 269 290 310 300 297 294 309 312 319 310 301 295 293 295 294 290 291 290 287 283 283 282 287 275 265 252 215 207 197 188
227 230 238 242 238 267 297 279 271 276 285 303 278 283 313 309 302 286 285 321 311 300 298 293 296 295 293 295 292 293 286 282 285 282 280 283 286 273 259 226 203 194 184 179
204 241 224 209 238 263 90 85 343 317 281 93 347 313 312 310 297 295 314 317 298 296 293 298 300 299 298 296 295 288 284 281 283 285 282 289 286 262 236 203 185 181 174 170
151 164 223 234 266 287 41 65 330 268 336 319 310 304 301 292 294 312 304 297 297 300 305 303 303 302 291 291 288 285 286 278 282 289 293 285 278 231 179 173 165 164 157 151
281 284 204 214 246 267 32 328 313 316 314 317 311 306 305 296 289 290 297 299 303 304 306 311 299 291 291 290 291 285 282 278 270 271 270 265 181 152 151 154 154 148 145 139
314 357 302 286 295 321 323 327 324 326 300 292 290 286 288 292 294 298 302 302 301 309 311 305 297 296 290 287 284 281 276 283 280 288 322 357 112 123 134 131 131 133 138 136
329 351 285 319 240 323 335 310 311 307 293 293 295 292 292 293 298 300 299 300 306 313 299 301 298 291 291 298 295 286 286 290 298 312 341 351 105 117 126 132 136 139 140 132
3 320 342 285 284 336 305 318 308 309 303 307 307 305 303 300 301 310 306 304 305 293 298 299 294 293 300 300 296 287 286 291 300 317 310 112 115 120 121 115 135 139 140 138
338 345 309 288 308 292 274 292 295 320 324 316 314 315 311 308 303 302 297 299 295 296 299 295 290 292 291 297 299 287 283 281 292 307 316 105 107 122 123 122 92 113 126 134